Location: Newark
(45.9456°N, 15.4064°E)
Time: 15:23:32
(UTC+00:00)

SR - Pass Details

Date: 01 February 2020
Orbit: 575 x 880 km, 66.7° (Epoch: 26 February)

Event Time Altitude Azimuth Distance (km) Brightness Sun altitude
Rises 05:24:53 0° 317° (NW) 3,353 - -10.1°
Reaches altitude 10° 05:27:49 10° 304° (NW) 2,367 - -9.6°
Exits shadow 05:27:56 11° 304° (WNW) 2,329 ? -9.6°
Maximum altitude 05:32:04 24° 253° (WSW) 1,529 ? -8.9°
Drops below altitude 10° 05:36:02 10° 200° (SSW) 2,192 ? -8.2°
Sets 05:38:39 0° 186° (S) 3,050 ? -7.8°
